Retour au catalogue

THORAD AGENA D DEB

ActifPO
NORAD 5000·DEBRIS·🇺🇸 United States

Lancé Apr 8, 1970 depuis Vandenberg Space Force Base

Loading…

Prochains Passages

TLE

Source: Space-Track
1  5000U 70025HW  26221.62801122  .00000175  00000-0  65287-3 0  9998
2  5000  99.7844 103.1081 0487078 203.4423 217.7260 12.70687084598453

Suivez THORAD AGENA D DEB en temps réel avec AllMySat

Download on the App Store